SCP
0 0 0 -0 -0 0 0 0 0 0 0 0 -0 -0 -0 -0 0 0 0 0 0 0 0 0 0 0 0 0 0 0 0 0
0 -0 -0 -0 -0 0 0 0 0 0 0 0 0 0 0 0 0 0 0 0 0 0 0 0 0 0 0 0 0 0 0 0
-0 -0 0 0 0 0 0 0 0 0 0 0 0 0 0 0 0 0 0 0 0 0 0 0 0 0 0 0 0 0 0 0
0 0 0 0 0 0 0 0 0 0 0 0 -0 0 0 0 0 0 0 0 0 0 0 0 -0 0 0 0 0 0 0 0
0 0 0 0 0 0 0 0 0 0 0 0 0 -0 -0 -0 -0 -0 0 0 0 0 -0 0 0 0 0 0 0 0 0 0
0 0 -0 0 0 0 0 0 0 0 0 0 0 0 -0 -0 -0 -0 -0 -0 0 0 0 0 -0 -0 0 0 0 0 0 0
0 0 -0 -0 -0 -0 -0 -0 -0 0 0 0 -0 0 -0 -0 -0 -0 -0 -0 -0 -0 0 0 0 0 -0 -0 -0 0 0 0
0 0 0 -0 -0 -0 -0 -0 -0 -0 -0 -0 0 -0 0 0 0 0 -0 -0 -0 -0 0 0 0 0 0 0 -0 -0 0 0
0 0 0 0 -0 -0 -0 0 -0 -0 -0 -0 -0 0 0 0 0 0 0 0 0 -0 0 0 0 0 0 0 0 0 0 0
0 0 0 0 0 0 0 -0 -0 -0 -0 -0 0 0 0 0 0 0 0 0 0 0 0 0 0 0 0 0 0 0 0 0
0 0 0 0 0 0 0 0 0 0 0 0 0 0 0 0 0 0 0 0 0 0 0 0 0 0 0 0 0 0 0 0
0 0 0 0 0 0 0 0 0 0 0 0 0 0 0 0 0 0 0 0 0 0 0 0 0 0 0 0 0 0 0 0
0 0 0 0 0 0 0 0 0 0 0 0 0 0 0 0 0 0 0 0 0 0 0 0 0 0 0 -0 0 0 0 0
0 0 0 0 0 0 0 0 0 0 0 0 0 0 0 0 0 0 0 0 0 0 0 0 0 0 0 0 0 0 0 0
0 0 0 0 0 0 0 0 0 0 0 0 0 0 0 0 0 0 0 0 0 0 0 0 0 0 0 0 0 0 0 0
0 0 0 0 0 0 0 0 0 0 0 0 0 0 0 0 0 0 0 0 0 0 0 0 0 0 0 0 0 0 0 0
0 0 0 0 0 0 0 0 0 0 0 0 0 0 0 0 0 0 0 0 0 0 0 0 0 0 0 0 0 0 0 0
0 0 0 0 0 0 0 0 0 0 0 0 0 0 0 0 0 0 0 0 -0 -0 0 0 0 0 0 0 0 0 0 0
0 0 0 0 0 0 0 0 0 0 0 0 0 0 0 0 0 0 0 0 0 0 0 0 0 0 0 0 0 0 0 0
0 0 0 0 0 0 0 0 0 0 0 0 0 0 0 0 0 0 0 0 0 0 0 0 0 0 0 0 0 0 0 0
Wind_Speed_500mb
28 32 35 38 41 43 41 38 39 39 40 40 41 43 44 43 44 45 37 32 35 32 36 43 43 49 58 74 89 98 103 104
24 24 25 29 34 38 40 44 45 42 42 42 41 40 40 42 43 42 43 45 40 35 33 36 43 49 56 62 71 85 98 105
12 17 22 26 28 31 37 45 50 50 50 47 45 43 44 46 47 49 48 44 42 43 44 40 39 43 53 62 64 73 83 96
11 15 19 19 26 32 39 43 54 58 54 54 56 55 52 50 49 50 51 53 53 49 45 41 45 47 48 56 61 70 76 82
15 19 22 25 28 32 35 42 51 56 58 61 65 65 63 61 60 58 57 55 52 55 61 58 50 47 51 53 58 65 75 80
15 19 22 25 28 30 37 40 44 51 54 57 64 70 74 78 77 73 68 65 62 61 56 56 61 64 61 53 52 60 70 78
18 21 24 27 29 31 33 38 48 55 58 59 63 68 76 83 86 85 84 83 77 72 70 66 64 61 59 62 66 59 63 77
25 28 32 36 37 38 39 44 64 72 72 71 71 74 77 81 86 93 97 98 95 91 86 82 78 71 67 64 63 71 73 75
33 36 37 39 41 42 48 64 77 80 79 80 84 87 89 88 89 90 92 97 103 106 103 101 96 86 78 72 72 74 77 82
38 37 44 45 45 53 72 77 73 72 79 85 88 96 104 110 112 110 110 107 106 109 115 117 114 106 97 88 83 85 85 82
44 54 54 57 56 73 87 88 83 78 83 90 97 100 99 98 106 114 115 123 123 124 121 122 127 118 113 104 96 94 93 92
51 54 59 59 74 85 92 99 96 100 99 98 94 85 92 98 93 89 95 102 120 126 131 128 125 128 123 114 103 101 96 96
54 63 71 72 79 93 103 107 110 113 116 117 113 108 100 95 99 91 91 95 104 103 114 124 126 123 119 110 103 103 93 98
65 72 73 79 88 98 103 102 106 110 114 116 115 110 100 90 87 84 82 84 90 88 92 104 99 97 92 78 77 78 81 92
66 71 81 87 91 90 92 95 99 105 108 105 98 94 87 80 75 76 75 75 79 83 87 88 86 83 79 71 66 70 79 85
66 76 86 87 88 86 87 88 94 98 98 93 87 81 82 80 78 76 78 78 84 87 89 92 96 87 70 63 57 58 67 59
70 79 81 82 82 82 79 81 86 89 86 85 87 88 84 82 84 74 72 74 77 82 88 97 102 95 89 86 85 81 68 63
73 76 73 75 78 75 76 76 75 78 82 84 85 86 85 83 82 87 90 76 74 75 76 80 87 85 83 82 80 76 74 79
66 65 64 68 72 72 74 74 76 76 78 79 78 78 80 82 85 85 86 88 97 80 67 66 67 68 69 68 66 76 75 79
58 55 58 63 65 68 71 73 75 75 77 74 74 77 80 84 83 82 81 83 85 85 74 64 52 52 53 59 65 50 57 71
Wind_Direction_500mb
17 12 5 3 3 3 2 9 12 12 12 10 4 360 359 357 0 359 345 323 307 298 288 283 277 269 263 256 253 252 251 247
3 4 4 360 1 3 2 1 6 13 12 9 7 2 354 348 346 347 347 350 340 319 303 290 284 277 271 267 262 257 254 252
359 11 11 4 359 0 357 350 352 0 360 358 354 353 353 350 345 339 336 338 340 341 333 317 301 286 277 276 271 264 259 255
348 357 11 359 353 353 351 344 340 344 350 347 344 343 342 341 339 337 332 328 326 325 327 328 324 309 294 283 275 273 268 262
330 338 342 344 342 341 339 338 335 333 337 336 333 333 333 333 331 327 325 325 323 321 318 314 307 309 308 294 285 277 270 266
323 327 321 316 312 323 327 321 322 325 324 324 319 318 319 319 321 321 320 318 317 316 315 315 312 305 295 291 295 286 277 270
322 322 317 310 300 299 307 308 318 318 316 311 306 304 305 307 310 311 313 313 312 311 311 310 309 311 311 302 292 281 279 275
311 319 322 318 312 300 299 301 312 315 314 311 307 302 299 298 299 301 303 305 306 305 306 305 304 305 306 308 298 289 281 275
295 303 309 312 311 303 299 308 315 316 315 314 312 309 305 301 298 295 294 294 296 298 299 298 297 299 299 299 299 292 284 279
290 293 305 314 314 304 306 312 311 310 310 309 306 304 303 301 299 296 294 290 288 288 290 292 292 294 294 296 294 291 288 281
285 294 305 313 308 305 310 312 311 308 304 302 302 300 296 293 293 294 292 291 288 284 282 282 285 286 287 289 289 286 286 286
291 298 305 305 306 309 311 312 312 307 303 300 298 292 289 289 288 285 284 285 287 287 284 281 278 279 281 281 280 281 281 281
295 300 305 309 310 311 311 312 309 307 304 303 301 299 295 291 289 286 283 282 282 284 286 284 280 276 277 277 274 275 273 273
298 303 308 311 314 312 312 311 309 307 305 304 304 304 304 299 294 289 285 281 279 279 279 281 282 280 277 270 265 264 262 267
306 309 310 312 313 313 314 314 311 310 309 310 310 311 309 303 296 291 288 284 280 278 278 278 279 277 274 273 269 262 263 266
308 309 311 315 314 317 319 317 314 313 311 310 309 306 303 299 294 291 288 285 283 280 278 277 277 274 273 269 267 268 276 272
309 311 316 316 317 321 322 321 315 310 311 310 310 310 305 301 298 297 292 289 285 282 278 277 275 276 273 271 268 267 267 267
312 315 317 316 319 327 325 318 320 319 317 315 313 309 305 302 298 297 303 298 292 287 284 279 278 276 272 269 266 262 254 254
313 316 316 319 327 329 325 328 325 323 320 315 311 305 301 299 298 297 295 297 301 305 295 289 283 278 271 269 271 256 246 243
314 318 321 325 330 329 332 330 327 326 326 322 314 312 309 306 302 299 297 296 297 304 310 311 296 287 276 269 271 270 237 230
Wind_Speed_850mb
28 32 35 38 41 43 41 38 39 39 40 40 41 43 44 43 44 45 37 32 35 32 36 43 43 49 58 74 89 98 103 104
24 24 25 29 34 38 40 44 45 42 42 42 41 40 40 42 43 42 43 45 40 35 33 36 43 49 56 62 71 85 98 105
12 17 22 26 28 31 37 45 50 50 50 47 45 43 44 46 47 49 48 44 42 43 44 40 39 43 53 62 64 73 83 96
11 15 19 19 26 32 39 43 54 58 54 54 56 55 52 50 49 50 51 53 53 49 45 41 45 47 48 56 61 70 76 82
15 19 22 25 28 32 35 42 51 56 58 61 65 65 63 61 60 58 57 55 52 55 61 58 50 47 51 53 58 65 75 80
15 19 22 25 28 30 37 40 44 51 54 57 64 70 74 78 77 73 68 65 62 61 56 56 61 64 61 53 52 60 70 78
18 21 24 27 29 31 33 38 48 55 58 59 63 68 76 83 86 85 84 83 77 72 70 66 64 61 59 62 66 59 63 77
25 28 32 36 37 38 39 44 64 72 72 71 71 74 77 81 86 93 97 98 95 91 86 82 78 71 67 64 63 71 73 75
33 36 37 39 41 42 48 64 77 80 79 80 84 87 89 88 89 90 92 97 103 106 103 101 96 86 78 72 72 74 77 82
38 37 44 45 45 53 72 77 73 72 79 85 88 96 104 110 112 110 110 107 106 109 115 117 114 106 97 88 83 85 85 82
44 54 54 57 56 73 87 88 83 78 83 90 97 100 99 98 106 114 115 123 123 124 121 122 127 118 113 104 96 94 93 92
51 54 59 59 74 85 92 99 96 100 99 98 94 85 92 98 93 89 95 102 120 126 131 128 125 128 123 114 103 101 96 96
54 63 71 72 79 93 103 107 110 113 116 117 113 108 100 95 99 91 91 95 104 103 114 124 126 123 119 110 103 103 93 98
65 72 73 79 88 98 103 102 106 110 114 116 115 110 100 90 87 84 82 84 90 88 92 104 99 97 92 78 77 78 81 92
66 71 81 87 91 90 92 95 99 105 108 105 98 94 87 80 75 76 75 75 79 83 87 88 86 83 79 71 66 70 79 85
66 76 86 87 88 86 87 88 94 98 98 93 87 81 82 80 78 76 78 78 84 87 89 92 96 87 70 63 57 58 67 59
70 79 81 82 82 82 79 81 86 89 86 85 87 88 84 82 84 74 72 74 77 82 88 97 102 95 89 86 85 81 68 63
73 76 73 75 78 75 76 76 75 78 82 84 85 86 85 83 82 87 90 76 74 75 76 80 87 85 83 82 80 76 74 79
66 65 64 68 72 72 74 74 76 76 78 79 78 78 80 82 85 85 86 88 97 80 67 66 67 68 69 68 66 76 75 79
58 55 58 63 65 68 71 73 75 75 77 74 74 77 80 84 83 82 81 83 85 85 74 64 52 52 53 59 65 50 57 71
Wind_Direction_850mb
17 12 5 3 3 3 2 9 12 12 12 10 4 360 359 357 0 359 345 323 307 298 288 283 277 269 263 256 253 252 251 247
3 4 4 360 1 3 2 1 6 13 12 9 7 2 354 348 346 347 347 350 340 319 303 290 284 277 271 267 262 257 254 252
359 11 11 4 359 0 357 350 352 0 360 358 354 353 353 350 345 339 336 338 340 341 333 317 301 286 277 276 271 264 259 255
348 357 11 359 353 353 351 344 340 344 350 347 344 343 342 341 339 337 332 328 326 325 327 328 324 309 294 283 275 273 268 262
330 338 342 344 342 341 339 338 335 333 337 336 333 333 333 333 331 327 325 325 323 321 318 314 307 309 308 294 285 277 270 266
323 327 321 316 312 323 327 321 322 325 324 324 319 318 319 319 321 321 320 318 317 316 315 315 312 305 295 291 295 286 277 270
322 322 317 310 300 299 307 308 318 318 316 311 306 304 305 307 310 311 313 313 312 311 311 310 309 311 311 302 292 281 279 275
311 319 322 318 312 300 299 301 312 315 314 311 307 302 299 298 299 301 303 305 306 305 306 305 304 305 306 308 298 289 281 275
295 303 309 312 311 303 299 308 315 316 315 314 312 309 305 301 298 295 294 294 296 298 299 298 297 299 299 299 299 292 284 279
290 293 305 314 314 304 306 312 311 310 310 309 306 304 303 301 299 296 294 290 288 288 290 292 292 294 294 296 294 291 288 281
285 294 305 313 308 305 310 312 311 308 304 302 302 300 296 293 293 294 292 291 288 284 282 282 285 286 287 289 289 286 286 286
291 298 305 305 306 309 311 312 312 307 303 300 298 292 289 289 288 285 284 285 287 287 284 281 278 279 281 281 280 281 281 281
295 300 305 309 310 311 311 312 309 307 304 303 301 299 295 291 289 286 283 282 282 284 286 284 280 276 277 277 274 275 273 273
298 303 308 311 314 312 312 311 309 307 305 304 304 304 304 299 294 289 285 281 279 279 279 281 282 280 277 270 265 264 262 267
306 309 310 312 313 313 314 314 311 310 309 310 310 311 309 303 296 291 288 284 280 278 278 278 279 277 274 273 269 262 263 266
308 309 311 315 314 317 319 317 314 313 311 310 309 306 303 299 294 291 288 285 283 280 278 277 277 274 273 269 267 268 276 272
309 311 316 316 317 321 322 321 315 310 311 310 310 310 305 301 298 297 292 289 285 282 278 277 275 276 273 271 268 267 267 267
312 315 317 316 319 327 325 318 320 319 317 315 313 309 305 302 298 297 303 298 292 287 284 279 278 276 272 269 266 262 254 254
313 316 316 319 327 329 325 328 325 323 320 315 311 305 301 299 298 297 295 297 301 305 295 289 283 278 271 269 271 256 246 243
314 318 321 325 330 329 332 330 327 326 326 322 314 312 309 306 302 299 297 296 297 304 310 311 296 287 276 269 271 270 237 230